Вернуться в каталог

ATLAS 5 CENTAUR DEB

LostHEO
NORAD 46843·DEBRIS·🇺🇸 United States

Запущен Oct 17, 2018 с Cape Canaveral Space Force Station

Loading…

Ближайшие Пролёты (ближайшие 24 часа)

TLE

УстаревшееSource: Space-Track

Эпоха: Mar 18, 2021, 15:39 UTC

1 46843U 18079CY  21077.65216947 -.00000133  00000-0  00000+0 0  9994
2 46843  10.6877 212.4474 4761589 353.8262   1.7994  1.87537002  2958

Отслеживайте ATLAS 5 CENTAUR DEB в реальном времени с AllMySat

Download on the App Store